STARLINK-35142, 65434

Orbit data source: Space-Track

STARLINK-35142, 65434 is a payload satellite owned by SpaceX/Seattle (US) in SSO that was launched on Wed, 03 Sep 2025 UTC via an FALCON 9 launch vehicle from the Air Force Western Test Range (AFWTR). Payload-class satellites include a variety of spacecraft equipped with specific instruments for various scientific and technological missions. These include communications satellites like Starlink; space stations such as the ISS; scientific satellites like the Hubble; Earth observation satellites from companies like Planet Labs, Umbra, and HawkEye 360; GPS; miniature CubeSats for education and research; and military/defense satellites.

Loading next visibility...
Identifier
65434, 2025-194A
Orbit
SSO
Country
Flag of USUS
Related business
Manufacturer
SpaceX/Seattle
Mission
Operational spacecraft
Bus & Motor
STARLINK V2MO, Unknown motor
Mass
575 kg wet, ~530 kg dry
Launch date (UTC)
2025-09-03 (2 weeks ago)
Launch vehicle
FALCON 9
Launch site
Air Force Western Test Range (AFWTR)
Object type
Payload
Rocket body
Debris
Shape & HBR
Unknown
Radar Cross Section
RCS unknown

Expand to show TLE details & history
Last TLE update: 20 hours ago

TLE from 20 hours ago
0 STARLINK-35142
1 65434U 25194A   25259.58337963 -.01956075  00000-0 -41041-1 0  9996
2 65434  97.6035 110.8282 0001045  67.7055 341.1248 15.48554193  2534
Epoch: 2025-09-16T14:00Z
TLE epoch observation values (Epoch: 2025-09-16T14:00:04Z)
Latitude
48.35781°
Longitude
-103.5462°
Altitude
427.935 km
Speed
7.66 km/s
True Right ascension
06h 48m 58s
True Declination
48° 10' 43"
Sunlit
Object was in daylight at epoch
Visualization orbit readout
Latitude
Unknown
Longitude
Unknown
Altitude
Unknown
Speed
Unknown
Apparent Right ascension
Unknown
Apparent Declination
Unknown
Sunlit
N/A
Visualization observer readout
Local Sidereal Time
02:55:20
Azimuth
Unknown
Elevation
Unknown
Doppler factor
Unknown
Orbital elements
Apogee altitude
418.601 km
Perigee altitude
417.181 km
Semi-major axis
6,796.028 km
Eccentricity
0.0001
Inclination
97.6035°
RAAN
110.8282°
Arg. of periapsis
67.7055°
True anomaly
341.12093°
Mean anomaly
341.1248°
Eccentric anomaly
341.12286°
Mean motion
3.87401 °/min
Orbital period
92.93 mins
BSTAR
-0.041041
Loading maneuver chart data...
Computing Atmospheric mass density...
Loading historical data...
Loading historical data...
Loading historical data...
Loading historical data...
Loading historical data...
Loading historical data...
Loading historical data...

Documentation

Showing up to 5 results
|